Weather History for Tappahannock, VA

Change the Weather History Date:

Friday, December 20, 2013

  Actual Average (KRIC) Record (KRIC)
Temperature  
Mean Temperature 57 °F 40 °F  
Max Temperature 65 °F 49 °F 74 °F (1931)
Min Temperature 49 °F 30 °F 2 °F (1942)
Degree Days  
Heating Degree Days 8 25  
Month to date heating degree days 456  
Since 1 July heating degree days 1132  
Cooling Degree Days 0 0  
Month to date cooling degree days 0  
Year to date cooling degree days 1548  
Growing Degree Days 7 (Base 50)    
Moisture  
Dew Point 37 °F    
Average Humidity 51    
Maximum Humidity 73    
Minimum Humidity 32    
Precipitation  
Precipitation 0.00 in 0.10 in 2.10 in (1957)
Month to date precipitation 2.16  
Year to date precipitation 42.50  
Snow  
Snow 0.00 in 0.00 in 4.50 in (1942)
Month to date snowfall 1.2  
Since 1 July snowfall 1.4  
Snow Depth -    
Sea Level Pressure  
Sea Level Pressure 30.12 in    
Wind  
Wind Speed 8 mph (SSW)    
Max Wind Speed 16 mph    
Max Gust Speed 22 mph    
Visibility 10 miles    
Events      
T = Trace of Precipitation, MM = Missing Value Source: NWS Daily Summary

Daily Weather History Graph

Daily Weather History Graph

Search for Another Location

Airport:

Trip Planner

Search our weather history database for the weather conditions in past years. The results will help you decide how hot, cold, wet, or windy it might be!

Date:

Astronomy

Dec. 20, 2013 Rise Set
Actual Time 7:19 AM EST 4:51 PM EST
Civil Twilight 6:49 AM EST 5:21 PM EST
Nautical Twilight 6:16 AM EST 5:54 PM EST
Astronomical Twilight 5:44 AM EST 6:26 PM EST
Moon 8:07 PM EST (12/20) 9:14 AM EST (12/20)
Length of Visible Light 10h 31m
Length of Day
9h 32m
Waning Gibbous, 90% of the Moon is Illuminated
Dec 20
Waning Gibbous
Dec 25
Last Quarter
Jan 1
New
Jan 7
First Quarter
Jan 15
Full

Hourly Weather History & Observations

Time (EST) Temp. Dew Point Humidity Pressure Visibility Wind Dir Wind Speed Gust Speed Precip Events Conditions
12:15 AM 49.1 °F 22.5 °F 35% 30.16 in 10.0 mi South 5.8 mph - N/A   Clear
12:35 AM 49.6 °F 22.3 °F 34% 30.17 in 10.0 mi South 6.9 mph - N/A   Clear
12:55 AM 50.5 °F 21.4 °F 32% 30.17 in 10.0 mi SSW 6.9 mph - N/A   Clear
1:15 AM 50.7 °F 21.4 °F 32% 30.17 in 10.0 mi SSW 6.9 mph - N/A   Clear
1:35 AM 50.4 °F 21.4 °F 32% 30.16 in 10.0 mi South 6.9 mph - N/A   Clear
1:55 AM 49.6 °F 21.9 °F 34% 30.16 in 10.0 mi South 9.2 mph - N/A   Clear
2:15 AM 50.0 °F 21.7 °F 33% 30.16 in 10.0 mi South 9.2 mph - N/A   Clear
2:35 AM 49.8 °F 22.1 °F 34% 30.16 in 10.0 mi South 9.2 mph - N/A   Clear
2:55 AM 49.5 °F 22.6 °F 35% 30.17 in 10.0 mi South 9.2 mph - N/A   Clear
3:15 AM 50.0 °F 22.6 °F 34% 30.17 in 10.0 mi SSW 8.1 mph - N/A   Clear
3:35 AM 49.5 °F 23.2 °F 36% 30.17 in 10.0 mi SSW 4.6 mph - N/A   Clear
3:55 AM 49.3 °F 23.4 °F 36% 30.17 in 10.0 mi SSW 8.1 mph - N/A   Clear
4:15 AM 49.3 °F 23.5 °F 36% 30.17 in 10.0 mi SSW 10.4 mph - N/A   Clear
4:35 AM 49.6 °F 23.7 °F 36% 30.16 in 10.0 mi South 6.9 mph - N/A   Clear
4:55 AM 49.1 °F 24.1 °F 38% 30.16 in 10.0 mi South 5.8 mph - N/A   Clear
5:15 AM 49.5 °F 23.9 °F 37% 30.17 in 10.0 mi SSW 5.8 mph - N/A   Clear
5:35 AM 50.0 °F 23.2 °F 35% 30.16 in 10.0 mi SSW 9.2 mph 16.1 mph N/A   Clear
5:55 AM 50.4 °F 23.2 °F 35% 30.16 in 10.0 mi SSW 9.2 mph 17.3 mph N/A   Clear
6:15 AM 50.0 °F 23.4 °F 35% 30.16 in 10.0 mi SSW 9.2 mph - N/A   Clear
6:35 AM 50.2 °F 24.1 °F 36% 30.16 in 10.0 mi SSW 10.4 mph 16.1 mph N/A   Clear
6:55 AM 50.0 °F 25.7 °F 39% 30.16 in 10.0 mi South 8.1 mph - N/A   Clear
7:15 AM 50.0 °F 27.9 °F 42% 30.17 in 10.0 mi SSW 8.1 mph - N/A   Clear
7:35 AM 50.5 °F 29.3 °F 44% 30.17 in 10.0 mi SSW 8.1 mph - N/A   Clear
7:55 AM 50.9 °F 30.2 °F 45% 30.17 in 10.0 mi South 10.4 mph - N/A   Clear
8:15 AM 51.4 °F 31.1 °F 46% 30.16 in 10.0 mi SSW 10.4 mph 17.3 mph N/A   Clear
8:35 AM 52.2 °F 32.0 °F 46% 30.16 in 10.0 mi SSW 9.2 mph 18.4 mph N/A   Clear
8:55 AM 52.9 °F 33.3 °F 47% 30.17 in 10.0 mi SSW 9.2 mph 17.3 mph N/A   Clear
9:15 AM 54.1 °F 34.7 °F 48% 30.17 in 10.0 mi SSW 11.5 mph 18.4 mph N/A   Clear
9:35 AM 54.1 °F 35.2 °F 49% 30.17 in 10.0 mi SSW 8.1 mph 17.3 mph N/A   Clear
9:55 AM 54.0 °F 35.8 °F 50% 30.17 in - SSW 10.4 mph - N/A   Unknown
10:15 AM 54.9 °F 36.9 °F 51% 30.17 in 10.0 mi SSW 12.7 mph 18.4 mph N/A   Clear
10:35 AM 55.6 °F 37.9 °F 52% 30.16 in 10.0 mi SSW 11.5 mph 20.7 mph N/A   Clear
10:55 AM 56.5 °F 39.0 °F 52% 30.17 in 10.0 mi SSW 12.7 mph 19.6 mph N/A   Clear
11:15 AM 58.1 °F 40.3 °F 52% 30.16 in 10.0 mi SSW 16.1 mph 21.9 mph N/A   Clear
11:35 AM 58.1 °F 41.2 °F 53% 30.14 in 10.0 mi SSW 13.8 mph 21.9 mph N/A   Clear
11:55 AM 58.6 °F 41.9 °F 54% 30.13 in 10.0 mi South 8.1 mph 21.9 mph N/A   Clear
12:15 PM 59.0 °F 42.6 °F 55% 30.13 in 10.0 mi SSW 9.2 mph 17.3 mph N/A   Clear
12:35 PM 60.3 °F 43.0 °F 53% 30.11 in 10.0 mi SSW 9.2 mph 16.1 mph N/A   Clear
12:55 PM 61.3 °F 43.5 °F 52% 30.11 in 10.0 mi South 10.4 mph 16.1 mph N/A   Clear
1:15 PM 61.7 °F 43.7 °F 52% 30.10 in 10.0 mi SSW 8.1 mph 19.6 mph N/A   Clear
1:35 PM 61.9 °F 43.9 °F 52% 30.08 in 10.0 mi South 9.2 mph 16.1 mph N/A   Clear
1:55 PM 62.1 °F 44.2 °F 52% 30.08 in 10.0 mi SSW 6.9 mph - N/A   Clear
2:15 PM 63.0 °F 44.8 °F 51% 30.07 in 10.0 mi South 9.2 mph 16.1 mph N/A   Clear
2:35 PM 63.7 °F 45.1 °F 51% 30.07 in 10.0 mi SSW 9.2 mph - N/A   Clear
2:55 PM 65.1 °F 45.5 °F 49% 30.06 in 10.0 mi SSW 9.2 mph - N/A   Clear
3:15 PM 64.6 °F 46.0 °F 51% 30.05 in 10.0 mi South 9.2 mph - N/A   Clear
3:35 PM 65.3 °F 45.9 °F 49% 30.05 in 10.0 mi South 11.5 mph 21.9 mph N/A   Clear
3:55 PM 64.6 °F 46.4 °F 52% 30.06 in 10.0 mi South 10.4 mph - N/A   Clear
4:15 PM 63.7 °F 46.8 °F 54% 30.06 in 10.0 mi South 6.9 mph - N/A   Clear
4:35 PM 62.8 °F 47.3 °F 57% 30.07 in 10.0 mi SSW 4.6 mph - N/A   Clear
4:55 PM 62.1 °F 47.5 °F 59% 30.07 in 10.0 mi South 6.9 mph - N/A   Clear
5:15 PM 62.4 °F 47.5 °F 58% 30.08 in 10.0 mi SSW 11.5 mph - N/A   Clear
5:35 PM 61.7 °F 47.5 °F 60% 30.08 in 10.0 mi South 4.6 mph - N/A   Clear
5:55 PM 60.6 °F 47.5 °F 62% 30.09 in 10.0 mi South 5.8 mph - N/A   Clear
6:15 PM 59.5 °F 47.5 °F 64% 30.09 in 10.0 mi SSW 3.5 mph - N/A   Clear
6:35 PM 59.0 °F 47.8 °F 66% 30.09 in 10.0 mi South 4.6 mph - N/A   Clear
6:55 PM 58.6 °F 48.2 °F 68% 30.08 in 10.0 mi South 5.8 mph - N/A   Clear
7:15 PM 58.8 °F 48.6 °F 69% 30.09 in 10.0 mi South 6.9 mph - N/A   Clear
7:35 PM 59.0 °F 48.7 °F 69% 30.09 in 10.0 mi South 6.9 mph - N/A   Clear
7:55 PM 58.6 °F 48.7 °F 70% 30.10 in 10.0 mi South 6.9 mph - N/A   Clear
8:15 PM 58.6 °F 48.7 °F 70% 30.09 in 10.0 mi South 6.9 mph - N/A   Clear
8:35 PM 58.3 °F 48.9 °F 71% 30.09 in 10.0 mi South 5.8 mph - N/A   Clear
8:55 PM 58.1 °F 49.1 °F 72% 30.09 in 10.0 mi South 6.9 mph - N/A   Clear
9:15 PM 57.6 °F 48.9 °F 73% 30.09 in 10.0 mi South 6.9 mph - N/A   Mostly Cloudy
9:35 PM 57.7 °F 48.6 °F 71% 30.09 in 10.0 mi South 5.8 mph - N/A   Scattered Clouds
9:55 PM 58.1 °F 48.2 °F 70% 30.10 in 10.0 mi South 6.9 mph - N/A   Clear
10:15 PM 58.1 °F 47.7 °F 68% 30.09 in 10.0 mi South 9.2 mph - N/A   Scattered Clouds
10:35 PM 58.1 °F 47.3 °F 67% 30.10 in 10.0 mi SSW 8.1 mph - N/A   Clear
10:55 PM 58.5 °F 46.8 °F 65% 30.10 in 10.0 mi South 8.1 mph - N/A   Scattered Clouds
11:15 PM 58.3 °F 46.2 °F 64% 30.10 in 10.0 mi SSW 6.9 mph - N/A   Scattered Clouds
11:35 PM 58.3 °F 45.9 °F 63% 30.10 in 10.0 mi SSW 6.9 mph - N/A   Clear
11:55 PM 58.5 °F 45.7 °F 62% 30.10 in 10.0 mi SSW 8.1 mph - N/A   Clear